+ View the NASA Portal
+ Center for Near-Earth Object Studies
IMPORTANT:
The SSD Announcement email list is now available. Major changes are coming in the near future, including possible hostname and/or URL changes. To be notified of such changes, subscribe to this email list.
Please visit
this page
for more details.
Don't show this message again
JPL Small-Body Database Browser
Search:
[
help
]
117067 (2004 KS10)
Classification:
Main-belt Asteroid
SPK-ID:
2117067
[
Ephemeris
|
Orbit Diagram
|
Orbital Elements
|
Mission Design
|
Physical Parameters
|
Discovery Circumstances
|
Close-Approach Data
]
[ show orbit diagram ]
Orbital Elements at Epoch 2458600.5 (2019-Apr-27.0) TDB
Reference:
JPL 20
(heliocentric ecliptic J2000)
Element
Value
Uncertainty (1-sigma)
Units
e
.1337411274484334
3.4447e-08
a
2.76514532044345
1.6111e-08
au
q
2.395331667728583
9.4868e-08
au
i
10.02635859489644
4.755e-06
deg
node
168.2826599693483
2.1465e-05
deg
peri
129.1690009997649
2.7596e-05
deg
M
23.49864614564344
1.7232e-05
deg
t
p
2458490.873459797568
(2019-Jan-07.37345980)
8.0215e-05
TDB
period
1679.482053062546
4.60
1.4678e-05
4.019e-08
d
yr
n
.2143517993202355
1.8734e-09
deg/d
Q
3.134958973158316
1.8266e-08
au
Orbit Determination Parameters
# obs. used (total)
537
data-arc span
16830 days (46.08 yr)
first obs. used
1973-09-30
last obs. used
2019-10-29
planetary ephem.
DE431
SB-pert. ephem.
SB431-N16
condition code
0
norm. resid. RMS
.57006
source
ORB
producer
Otto Matic
solution date
2019-Nov-07 13:49:30
Additional Information
Earth MOID
= 1.39405 au
Jupiter MOID
= 2.15787 au
T_jup
= 3.305
[ show covariance matrix ]
[
Ephemeris
|
Orbit Diagram
|
Orbital Elements
|
Mission Design
|
Physical Parameters
|
Discovery Circumstances
|
Close-Approach Data
]
Physical Parameter Table
Parameter
Symbol
Value
Units
Sigma
Reference
Notes
absolute magnitude
H
15.6
n/a
MPO449685
117067 (2004 KS10)
Discovered 2004-May-17 by LINEAR at Socorro
Reference:
20051019/Numbers.arc
Last Updated:
2005-10-26
[ show close-approach data ]
[
Ephemeris
|
Orbit Diagram
|
Orbital Elements
|
Mission Design
|
Physical Parameters
|
Discovery Circumstances
|
Close-Approach Data
]
2019-Dec-08 01:21 UT
(server date/time)
Site Manager:
Ryan S. Park
Webmaster
:
Alan B. Chamberlin